Tracking 35030 objects as of 11-Aug-2026
HD Live streaming from Space Station
objects crossing your sky now

K2SAT

Track K2SAT now!
10-day predictions
K2SAT is classified as:


NORAD ID: 43771
Int'l Code: 2018-099P
Launch date: December 3, 2018
Source: United States (US)
Launch site: AIR FORCE WESTERN TEST RANGE (AFWTR)

Uplink (MHz): 145.980
Downlink (MHz): 436.225/2404.000
Beacon (MHz): 435.835
Mode: FM 9k6 BSPK
Call sign:
Status: Inactive

Your satellite tracking list
Your tracking list is empty




NASA's NSSDC Master Catalog

Two Line Element Set (TLE):
1 43771U 18099P   26222.61088690  .00010001  00000-0  28535-3 0  9999
2 43771  97.4212 286.6369 0009744  93.4026 266.8333 15.36199863421893
Source of the keplerian elements: AFSPC